Location: Morisset
(33.1080°S, 151.4871°E)
Time: 08:36:11
(UTC+00:00)

SL-16 R/B - Pass Details

Date: 29 October 2020
Orbit: 986 x 1006 km, 99.5° (Epoch: 27 November)

Event Time Altitude Azimuth Distance (km) Brightness Sun altitude
Rises 16:57:26 0° 173° (S) 3,735 6.2 -23.2°
Reaches altitude 10° 16:59:58 10° 177° (S) 2,777 5.4 -22.8°
Maximum altitude 17:06:00 53° 251° (WSW) 1,208 2.7 -21.7°
Enters shadow 17:07:52 40° 300° (WNW) 1,433 2.8 -21.4°
